Location: Most
(50.5133°N, 13.6207°E)
Time: 10:39:47
(UTC+01:00)

SEEDS - Pass Details

Date: 29 November 2021
Orbit: 584 x 600 km, 97.6° (Epoch: 22 January)

Event Time Altitude Azimuth Distance (km) Brightness Sun altitude
Rises 06:09:37 0° 0° (N) 2,828 ? -14.0°
Reaches altitude 10° 06:12:23 10° 341° (NNW) 1,920 ? -13.6°
Enters shadow 06:13:31 14° 327° (NNW) 1,656 ? -13.4°
